Regional Weather Roundup
Issued by NWS Charleston, WV

Home | Current Version | Previous Version | Graphics & Text | Print | Product List | Glossary On
Versions: 1 2 3 4 5 6 7 8 9 10 11 12 13 14 15 16 17 18 19 20 21 22 23 24 25 26 27 28
000
ASUS41 KRLX 250910
RWRRLX
West Virginia Regional Weather Roundup
National Weather Service Charleston WV
500 AM EDT TUE APR 25 2017

Note: "fair" indicates few or no clouds below 12,000 feet with no
significant weather and/or obstructions to visibility.

WVZ003-251000-
Northern Panhandle of West Virginia

CITY           SKY/WX    TMP DP  RH WIND       PRES   REMARKS
WHEELING       LGT RAIN  51  46  83 E12       29.86F
$$

WVZ009-251000-
Northwest West Virginia

CITY           SKY/WX    TMP DP  RH WIND       PRES   REMARKS
PARKERSBURG    CLOUDY    54  46  74 E8        29.83S
$$

WVZ006-251000-
Western West Virginia

CITY           SKY/WX    TMP DP  RH WIND       PRES   REMARKS
HUNTINGTON     CLOUDY    54  49  83 N5        29.78R
$$

WVZ015-251000-
West Central West Virginia

CITY           SKY/WX    TMP DP  RH WIND       PRES   REMARKS
CHARLESTON     LGT RAIN  53  48  83 E9        29.78R
$$

WVZ022-031-251000-
North Central West Virginia

CITY           SKY/WX    TMP DP  RH WIND       PRES   REMARKS
CLARKSBURG     CLOUDY    51  46  83 NE10      29.84F
MORGANTOWN     LGT RAIN  51  45  79 VRB6      29.88F
$$

WVZ025-035-042-045-251000-
Southern West Virginia

CITY           SKY/WX    TMP DP  RH WIND       PRES   REMARKS
BECKLEY        LGT RAIN  51  49  92 E5        29.77F
LOGAN          LGT RAIN  55  52  88 NE7       29.76S
BLUEFIELD      FOG       47  46  97 VRB6      29.76S VSB 1/4
LEWISBURG      CLOUDY    50  48  93 NE7       29.77F
$$

WVZ047-251000-
Northern Mountains of West Virginia

CITY           SKY/WX    TMP DP  RH WIND       PRES   REMARKS
ELKINS         CLOUDY    52  45  77 CALM      29.84S
$$

WVZ052-251000-
Eastern Panhandle of West Virginia

CITY           SKY/WX    TMP DP  RH WIND       PRES   REMARKS
MARTINSBURG    CLOUDY    49  46  90 N9        29.92F
PETERSBURG     CLOUDY    49  48  96 N3        29.93S FOG
$$




USA.gov is the U.S. government's official web portal to all federal, state and local government web resources and services.